Weather in Kosta

Russia / Republic of North Ossetia — Alania     43°11′39″N   44°27′23″E
temp.,
°C
wind,
m/s
gust,
m/s
humid.,
%
clouds,
%
prec.,
mm/h
press.,
hPa
HPBL,
m
22 october, fri
fri2200:00+7e11660 0.0 102410
03:00+7ese11670 0.0 102210
06:00+7ese11620 0.0 102110
09:00+13ese11430 0.0 1021129
12:00+19ne12320 0.0 1019489
15:00+19ne21330 0.0 1019679
18:00+13ene22490 0.0 102011
21:00+12se11540 0.0 102010
23 october, sat
sat2300:00+10ssw11590 0.0 102010
03:00+10s00620 0.0 102110
06:00+9s01660 0.0 102110
09:00+13ssw00520 0.0 1021153
12:00+18n11380 0.0 1019660
15:00+19nnw11340 0.0 10181011
18:00+14ne11510 0.0 101910
21:00+12se11580 0.0 101910
24 october, sun
sun2400:00+11sw11640 0.0 101910
03:00+10sw11714 0.0 102010
06:00+9ssw117652 0.0 102010
09:00+13w1162100 0.0 1020140
12:00+17nnw2142100 0.0 1018749
15:00+17n2141100 0.0 1017860
18:00+12ne22565 0.0 101715
21:00+11ene1158100 0.0 101711
25 october, mon
mon2500:00+10w2266100 0.0 101714
03:00+8wnw2391100 0.0 1019144
06:00+6nnw4790100 1.4 1022583
09:00+4nw2695100 2.4 1025572
12:00+4w2392100 0.4 1025560
15:00+4w4695100 1.8 1027822
18:00+3wsw349291 0.9 1031444
21:00+3w238694 1.4 1032344
26 october, tue
tue2600:00+2n119219 0.0 103222
03:00+1n11895 0.0 103211
06:000ssw008887 0.0 103412
09:00+3nnw11725 0.0 1034431
12:00+7nw115911 0.0 1032925
15:00+7nnw215619 0.0 10311062
18:00+4ne33685 0.0 103256
21:00+2ene34685 0.0 103282